Tucson, AZ

1:02 AM MST on November 23, 2017 (GMT -0700)
Tucson International

Weather History for KTUS - October, 2013

Change the Weather History Date:

Friday, October 4, 2013

  Actual Average Record
Temperature  
Mean Temperature 74 °F 75 °F  
Max Temperature 87 °F 89 °F 100 °F (1917)
Min Temperature 61 °F 62 °F 40 °F (1908)
Degree Days  
Heating Degree Days 0 0  
Month to date heating degree days 0 0  
Since 1 July heating degree days 0 0  
Cooling Degree Days 9 11  
Month to date cooling degree days 47 45  
Year to date cooling degree days 3468 2952  
Growing Degree Days 24 (Base 50)    
Moisture  
Dew Point 36 °F    
Average Humidity 28    
Maximum Humidity 43    
Minimum Humidity 13    
Precipitation  
Precipitation 0.00 in 0.03 in 0.63 in (1972)
Month to date precipitation 0.00 0.14  
Year to date precipitation 5.48 9.34  
Snow  
Snow 0.00 in - - ()
Month to date snowfall 0.0  
Snow Depth 0.00 in    
Sea Level Pressure  
Sea Level Pressure 29.85 in    
Wind  
Wind Speed 7 mph (West)    
Max Wind Speed 17 mph    
Max Gust Speed 23 mph    
Visibility 10 miles    
Events      
T = Trace of Precipitation, MM = Missing Value Source: NWS Daily Summary

Daily Weather History Graph

Daily Weather History Graph

Search for Another Location

Airport or City:

Trip Planner

Search our weather history database for the weather conditions in past years. The results will help you decide how hot, cold, wet, or windy it might be!

Date:

Astronomy

Oct. 04, 2013 Rise Set
Actual Time 6:19 AM MST 6:04 PM MST
Civil Twilight 5:55 AM MST 6:28 PM MST
Nautical Twilight 5:27 AM MST 6:57 PM MST
Astronomical Twilight 4:58 AM MST 7:25 PM MST
Moon 5:58 AM MST (10/4) 5:51 PM MST (10/4)
Length of Visible Light 12h 33m
Length of Day
11h 44m
Waning Crescent, 0% of the Moon is Illuminated
Oct 4
Waning Crescent
Oct 4
New
Oct 11
First Quarter
Oct 18
Full
Oct 26
Last Quarter

Hourly Weather History & Observations

Time (MST) Temp. Dew Point Humidity Pressure Visibility Wind Dir Wind Speed Gust Speed Precip Events Conditions
12:53 AM 71.1 °F 41.0 °F 34% 29.77 in 10.0 mi West 4.6 mph - N/A   Clear
1:53 AM 72.0 °F 39.9 °F 31% 29.77 in 10.0 mi South 3.5 mph - N/A   Clear
2:53 AM 69.1 °F 41.0 °F 36% 29.76 in 10.0 mi SSW 3.5 mph - N/A   Clear
3:53 AM 68.0 °F 41.0 °F 37% 29.78 in 10.0 mi Calm Calm - N/A   Clear
4:53 AM 68.0 °F 41.0 °F 37% 29.79 in 10.0 mi East 4.6 mph - N/A   Clear
5:53 AM 64.0 °F 39.9 °F 41% 29.81 in 10.0 mi South 5.8 mph - N/A   Clear
6:53 AM 63.0 °F 39.9 °F 43% 29.84 in 10.0 mi SSE 5.8 mph - N/A   Clear
7:53 AM 66.9 °F 43.0 °F 42% 29.86 in 10.0 mi South 5.8 mph - N/A   Clear
8:53 AM 72.0 °F 45.0 °F 38% 29.88 in 10.0 mi Calm Calm - N/A   Clear
9:53 AM 78.1 °F 39.9 °F 25% 29.88 in 10.0 mi NW 5.8 mph - N/A   Clear
10:53 AM 79.0 °F 39.9 °F 25% 29.88 in 10.0 mi Calm Calm - N/A   Clear
11:53 AM 81.0 °F 39.0 °F 22% 29.87 in 10.0 mi Calm Calm - N/A   Clear
12:53 PM 82.0 °F 37.0 °F 20% 29.85 in 10.0 mi WSW 5.8 mph - N/A   Clear
1:53 PM 84.9 °F 34.0 °F 16% 29.83 in 10.0 mi WNW 11.5 mph 17.3 mph N/A   Clear
2:53 PM 86.0 °F 34.0 °F 16% 29.82 in 10.0 mi NW 13.8 mph 19.6 mph N/A   Clear
3:53 PM 86.0 °F 34.0 °F 16% 29.81 in 10.0 mi NW 9.2 mph - N/A   Clear
4:53 PM 84.9 °F 37.9 °F 19% 29.81 in 10.0 mi NW 9.2 mph - N/A   Clear
5:53 PM 81.0 °F 41.0 °F 24% 29.83 in 10.0 mi NNW 11.5 mph - N/A   Clear
6:53 PM 78.1 °F 35.1 °F 21% 29.86 in 10.0 mi NNW 11.5 mph - N/A   Clear
7:53 PM 77.0 °F 30.0 °F 18% 29.88 in 10.0 mi NW 13.8 mph - N/A   Clear
8:53 PM 75.9 °F 21.9 °F 13% 29.90 in 10.0 mi NW 10.4 mph - N/A   Clear
9:53 PM 69.1 °F 24.1 °F 18% 29.93 in 10.0 mi SW 4.6 mph - N/A   Clear
10:53 PM 66.9 °F 21.9 °F 18% 29.94 in 10.0 mi WSW 6.9 mph - N/A   Clear
11:53 PM 66.0 °F 19.0 °F 17% 29.94 in 10.0 mi West 9.2 mph - N/A   Clear